Time,TemperatureF,DewpointF,PressureIn,WindDirection,WindDirectionDegrees,WindSpeedMPH,WindSpeedGustMPH,Humidity,HourlyPrecipIn,Conditions,Clouds,dailyrainin,SoftwareType,DateUTC
2013-03-29 00:03:00,58.6,44.3,30.10,East,90,0.0,5.4,59,-99.99,,,0.00,wxRedirect v1.1,2013-03-29 05:03:00,
2013-03-29 00:09:00,58.6,44.3,30.10,East,90,0.4,3.4,59,-99.99,,,0.00,wxRedirect v1.1,2013-03-29 05:09:00,
2013-03-29 00:14:00,58.6,44.3,30.10,East,90,0.0,2.7,59,-99.99,,,0.00,wxRedirect v1.1,2013-03-29 05:14:00,
2013-03-29 00:19:00,58.6,44.3,30.10,East,90,0.0,0.0,59,-99.99,,,0.00,wxRedirect v1.1,2013-03-29 05:19:00,
2013-03-29 00:25:00,58.5,44.7,30.10,ESE,112,2.9,2.9,60,-99.99,,,0.00,wxRedirect v1.1,2013-03-29 05:25:00,
2013-03-29 00:30:00,58.5,44.7,30.10,East,90,0.0,2.9,60,-99.99,,,0.00,wxRedirect v1.1,2013-03-29 05:30:00,
2013-03-29 00:35:00,58.3,44.9,30.10,ESE,112,2.9,2.9,61,-99.99,,,0.00,wxRedirect v1.1,2013-03-29 05:35:00,
2013-03-29 00:41:00,58.3,44.9,30.09,ESE,112,1.8,2.9,61,-99.99,,,0.00,wxRedirect v1.1,2013-03-29 05:41:00,
2013-03-29 00:46:00,58.1,44.7,30.10,East,90,0.0,2.9,61,-99.99,,,0.00,wxRedirect v1.1,2013-03-29 05:46:00,
2013-03-29 00:51:00,58.1,44.7,30.10,East,90,2.2,2.9,61,-99.99,,,0.00,wxRedirect v1.1,2013-03-29 05:51:00,
2013-03-29 00:56:00,58.1,44.7,30.10,ESE,112,0.0,2.2,61,-99.99,,,0.00,wxRedirect v1.1,2013-03-29 05:56:00,
2013-03-29 01:02:00,58.1,44.7,30.10,ESE,112,2.9,2.9,61,-99.99,,,0.00,wxRedirect v1.1,2013-03-29 06:02:00,
2013-03-29 01:08:00,57.9,45.0,30.10,SE,135,2.5,2.9,62,-99.99,,,0.00,wxRedirect v1.1,2013-03-29 06:08:00,
2013-03-29 01:13:00,57.9,45.0,30.10,SE,135,2.9,2.9,62,-99.99,,,0.00,wxRedirect v1.1,2013-03-29 06:13:00,
2013-03-29 01:18:00,57.9,45.0,30.10,SSE,157,3.4,3.8,62,-99.99,,,0.00,wxRedirect v1.1,2013-03-29 06:18:00,
2013-03-29 01:24:00,57.9,45.0,30.10,SSE,157,1.3,3.8,62,-99.99,,,0.00,wxRedirect v1.1,2013-03-29 06:24:00,
2013-03-29 01:29:00,57.9,45.0,30.10,SSE,157,3.8,3.8,62,-99.99,,,0.00,wxRedirect v1.1,2013-03-29 06:29:00,
2013-03-29 01:34:00,57.9,45.4,30.09,SSE,157,2.0,3.8,63,-99.99,,,0.00,wxRedirect v1.1,2013-03-29 06:34:00,
2013-03-29 01:40:00,57.9,45.4,30.09,SSE,157,3.1,3.8,63,-99.99,,,0.00,wxRedirect v1.1,2013-03-29 06:40:00,
2013-03-29 01:45:00,57.7,45.2,30.09,SSE,157,3.6,4.3,63,-99.99,,,0.00,wxRedirect v1.1,2013-03-29 06:45:00,
2013-03-29 01:50:00,57.7,45.2,30.09,SSE,157,1.6,4.3,63,-99.99,,,0.00,wxRedirect v1.1,2013-03-29 06:50:00,
2013-03-29 01:56:00,57.7,45.2,30.09,SSE,157,1.8,3.6,63,-99.99,,,0.00,wxRedirect v1.1,2013-03-29 06:56:00,
2013-03-29 02:01:00,57.7,45.2,30.09,SSE,157,0.2,2.0,63,-99.99,,,0.00,wxRedirect v1.1,2013-03-29 07:01:00,
2013-03-29 02:06:00,57.7,45.2,30.09,SSE,157,0.0,2.0,63,-99.99,,,0.00,wxRedirect v1.1,2013-03-29 07:06:00,
2013-03-29 02:12:00,57.7,45.2,30.09,ENE,67,1.6,1.6,63,-99.99,,,0.00,wxRedirect v1.1,2013-03-29 07:12:00,
2013-03-29 02:17:00,57.6,45.0,30.10,NE,45,4.5,5.6,63,-99.99,,,0.00,wxRedirect v1.1,2013-03-29 07:17:00,
2013-03-29 02:22:00,57.0,44.5,30.09,NE,45,0.0,5.6,63,-99.99,,,0.00,wxRedirect v1.1,2013-03-29 07:22:00,
2013-03-29 02:28:00,57.0,44.5,30.09,NE,45,0.0,1.8,63,-99.99,,,0.00,wxRedirect v1.1,2013-03-29 07:28:00,
2013-03-29 02:33:00,56.8,44.3,30.09,NE,45,0.0,0.0,63,-99.99,,,0.00,wxRedirect v1.1,2013-03-29 07:33:00,
2013-03-29 02:38:00,56.5,44.0,30.10,NE,45,0.0,0.0,63,-99.99,,,0.00,wxRedirect v1.1,2013-03-29 07:38:00,
2013-03-29 02:44:00,56.5,44.0,30.09,NE,45,0.0,0.0,63,-99.99,,,0.00,wxRedirect v1.1,2013-03-29 07:44:00,
2013-03-29 02:49:00,56.5,44.0,30.10,NE,45,0.0,0.0,63,-99.99,,,0.00,wxRedirect v1.1,2013-03-29 07:49:00,
2013-03-29 02:54:00,56.1,43.6,30.10,NE,45,0.0,0.0,63,-99.99,,,0.00,wxRedirect v1.1,2013-03-29 07:54:00,
2013-03-29 03:00:00,56.1,43.6,30.10,NE,45,0.0,0.0,63,-99.99,,,0.00,wxRedirect v1.1,2013-03-29 08:00:00,
2013-03-29 03:05:00,55.9,43.5,30.10,NE,45,0.0,0.0,63,-99.99,,,0.00,wxRedirect v1.1,2013-03-29 08:05:00,
2013-03-29 03:10:00,55.8,43.3,30.10,NE,45,0.9,0.9,63,-99.99,,,0.00,wxRedirect v1.1,2013-03-29 08:10:00,
2013-03-29 03:16:00,55.8,43.7,30.10,NE,45,0.0,0.9,64,-99.99,,,0.00,wxRedirect v1.1,2013-03-29 08:16:00,
2013-03-29 03:21:00,55.0,43.4,30.10,NE,45,1.3,1.3,65,-99.99,,,0.00,wxRedirect v1.1,2013-03-29 08:21:00,
2013-03-29 03:26:00,55.0,43.4,30.10,NE,45,0.0,1.3,65,-99.99,,,0.00,wxRedirect v1.1,2013-03-29 08:26:00,
2013-03-29 03:32:00,54.7,43.1,30.10,NE,45,0.0,0.0,65,-99.99,,,0.00,wxRedirect v1.1,2013-03-29 08:32:00,
2013-03-29 03:37:00,54.7,43.1,30.10,NE,45,0.0,0.0,65,-99.99,,,0.00,wxRedirect v1.1,2013-03-29 08:37:00,
2013-03-29 03:42:00,54.5,42.9,30.09,NE,45,0.0,0.0,65,-99.99,,,0.00,wxRedirect v1.1,2013-03-29 08:42:00,
2013-03-29 03:48:00,54.3,42.8,30.09,NE,45,0.0,0.0,65,-99.99,,,0.00,wxRedirect v1.1,2013-03-29 08:48:00,
2013-03-29 03:53:00,54.1,42.6,30.09,NE,45,0.0,0.0,65,-99.99,,,0.00,wxRedirect v1.1,2013-03-29 08:53:00,
2013-03-29 03:58:00,54.1,42.6,30.09,NE,45,0.0,0.0,65,-99.99,,,0.00,wxRedirect v1.1,2013-03-29 08:58:00,
2013-03-29 04:04:00,54.0,42.4,30.10,NE,45,0.0,0.0,65,-99.99,,,0.00,wxRedirect v1.1,2013-03-29 09:04:00,
2013-03-29 04:09:00,53.8,42.6,30.10,NE,45,0.0,0.0,66,-99.99,,,0.00,wxRedirect v1.1,2013-03-29 09:09:00,
2013-03-29 04:14:00,53.4,42.3,30.09,NE,45,0.0,0.0,66,-99.99,,,0.00,wxRedirect v1.1,2013-03-29 09:14:00,
2013-03-29 04:20:00,53.4,42.3,30.09,NE,45,0.0,0.0,66,-99.99,,,0.00,wxRedirect v1.1,2013-03-29 09:20:00,
2013-03-29 04:25:00,53.2,42.5,30.09,NE,45,0.0,0.0,67,-99.99,,,0.00,wxRedirect v1.1,2013-03-29 09:25:00,
2013-03-29 04:30:00,52.9,42.2,30.09,NE,45,0.0,0.0,67,-99.99,,,0.00,wxRedirect v1.1,2013-03-29 09:30:00,
2013-03-29 04:36:00,52.9,42.2,30.09,NE,45,0.0,0.0,67,-99.99,,,0.00,wxRedirect v1.1,2013-03-29 09:36:00,
2013-03-29 04:41:00,52.7,42.0,30.09,NE,45,0.0,0.0,67,-99.99,,,0.00,wxRedirect v1.1,2013-03-29 09:41:00,
2013-03-29 04:46:00,52.5,41.9,30.09,NE,45,0.0,0.0,67,-99.99,,,0.00,wxRedirect v1.1,2013-03-29 09:46:00,
2013-03-29 04:52:00,52.3,41.7,30.09,NE,45,0.0,0.0,67,-99.99,,,0.00,wxRedirect v1.1,2013-03-29 09:52:00,
2013-03-29 04:57:00,52.3,42.1,30.09,NE,45,0.0,0.0,68,-99.99,,,0.00,wxRedirect v1.1,2013-03-29 09:57:00,
2013-03-29 05:02:00,52.2,41.9,30.09,NE,45,0.0,0.0,68,-99.99,,,0.00,wxRedirect v1.1,2013-03-29 10:02:00,
2013-03-29 05:08:00,52.2,41.5,30.09,NE,45,0.0,0.0,67,-99.99,,,0.00,wxRedirect v1.1,2013-03-29 10:08:00,
2013-03-29 05:13:00,52.2,41.9,30.09,NE,45,0.0,0.0,68,-99.99,,,0.00,wxRedirect v1.1,2013-03-29 10:13:00,
2013-03-29 05:18:00,52.2,41.9,30.09,NE,45,0.0,0.0,68,-99.99,,,0.00,wxRedirect v1.1,2013-03-29 10:18:00,
2013-03-29 05:24:00,52.2,41.9,30.09,NE,45,0.0,0.0,68,-99.99,,,0.00,wxRedirect v1.1,2013-03-29 10:24:00,
2013-03-29 05:29:00,52.2,41.9,30.09,NE,45,0.0,0.0,68,-99.99,,,0.00,wxRedirect v1.1,2013-03-29 10:29:00,
2013-03-29 05:34:00,51.8,41.6,30.09,NE,45,0.0,0.0,68,-99.99,,,0.00,wxRedirect v1.1,2013-03-29 10:34:00,
2013-03-29 05:40:00,51.6,41.4,30.10,NE,45,0.0,0.0,68,-99.99,,,0.00,wxRedirect v1.1,2013-03-29 10:40:00,
2013-03-29 05:45:00,51.4,41.3,30.10,NE,45,0.0,0.0,68,-99.99,,,0.00,wxRedirect v1.1,2013-03-29 10:45:00,
2013-03-29 05:50:00,51.3,41.1,30.10,NE,45,0.0,0.0,68,-99.99,,,0.00,wxRedirect v1.1,2013-03-29 10:50:00,
2013-03-29 05:56:00,51.1,40.9,30.10,NE,45,0.0,0.0,68,-99.99,,,0.00,wxRedirect v1.1,2013-03-29 10:56:00,
2013-03-29 06:01:00,50.9,41.1,30.10,NE,45,0.0,0.0,69,-99.99,,,0.00,wxRedirect v1.1,2013-03-29 11:01:00,
2013-03-29 06:06:00,50.9,41.1,30.09,NE,45,0.0,0.0,69,-99.99,,,0.00,wxRedirect v1.1,2013-03-29 11:06:00,
2013-03-29 06:12:00,50.7,40.9,30.10,NE,45,0.0,0.0,69,-99.99,,,0.00,wxRedirect v1.1,2013-03-29 11:12:00,
2013-03-29 06:17:00,50.7,40.9,30.10,NE,45,0.0,0.0,69,-99.99,,,0.00,wxRedirect v1.1,2013-03-29 11:17:00,
2013-03-29 06:22:00,50.5,40.8,30.10,NE,45,0.0,0.0,69,-99.99,,,0.00,wxRedirect v1.1,2013-03-29 11:22:00,
2013-03-29 06:28:00,50.4,40.6,30.10,NE,45,0.0,0.0,69,-99.99,,,0.00,wxRedirect v1.1,2013-03-29 11:28:00,
2013-03-29 06:33:00,50.4,40.6,30.10,NE,45,0.0,0.0,69,-99.99,,,0.00,wxRedirect v1.1,2013-03-29 11:33:00,
2013-03-29 06:38:00,50.2,40.4,30.10,NE,45,0.0,0.0,69,-99.99,,,0.00,wxRedirect v1.1,2013-03-29 11:38:00,
2013-03-29 06:44:00,50.2,40.8,30.10,NE,45,0.0,0.0,70,-99.99,,,0.00,wxRedirect v1.1,2013-03-29 11:44:00,
2013-03-29 06:49:00,50.2,40.8,30.10,NE,45,0.0,0.0,70,-99.99,,,0.00,wxRedirect v1.1,2013-03-29 11:49:00,
2013-03-29 06:54:00,50.2,40.8,30.10,NE,45,0.0,0.0,70,-99.99,,,0.00,wxRedirect v1.1,2013-03-29 11:54:00,
2013-03-29 07:00:00,50.0,41.0,30.10,NE,45,0.0,0.0,71,-99.99,,,0.00,wxRedirect v1.1,2013-03-29 12:00:00,
2013-03-29 07:05:00,50.0,41.0,30.11,NE,45,0.0,0.0,71,-99.99,,,0.00,wxRedirect v1.1,2013-03-29 12:05:00,
2013-03-29 07:10:00,49.8,40.8,30.11,NE,45,0.0,0.0,71,-99.99,,,0.00,wxRedirect v1.1,2013-03-29 12:10:00,
2013-03-29 07:16:00,49.8,40.8,30.11,NE,45,0.0,0.0,71,-99.99,,,0.00,wxRedirect v1.1,2013-03-29 12:16:00,
2013-03-29 07:21:00,49.8,41.1,30.11,NE,45,0.0,0.0,72,-99.99,,,0.00,wxRedirect v1.1,2013-03-29 12:21:00,
2013-03-29 07:26:00,49.8,41.1,30.11,NE,45,0.0,0.0,72,-99.99,,,0.00,wxRedirect v1.1,2013-03-29 12:26:00,
2013-03-29 07:32:00,49.8,41.1,30.12,NE,45,0.0,0.0,72,-99.99,,,0.00,wxRedirect v1.1,2013-03-29 12:32:00,
2013-03-29 07:37:00,49.8,41.5,30.12,NE,45,0.0,0.0,73,-99.99,,,0.00,wxRedirect v1.1,2013-03-29 12:37:00,
2013-03-29 07:42:00,49.8,41.5,30.12,NE,45,0.0,0.0,73,-99.99,,,0.00,wxRedirect v1.1,2013-03-29 12:42:00,
2013-03-29 07:48:00,49.8,41.5,30.12,NE,45,0.0,0.0,73,-99.99,,,0.00,wxRedirect v1.1,2013-03-29 12:48:00,
2013-03-29 07:53:00,49.8,41.8,30.13,NE,45,0.0,0.0,74,-99.99,,,0.00,wxRedirect v1.1,2013-03-29 12:53:00,
2013-03-29 07:58:00,49.8,41.8,30.13,ENE,67,0.0,0.0,74,-99.99,,,0.00,wxRedirect v1.1,2013-03-29 12:58:00,
2013-03-29 08:04:00,50.2,42.5,30.13,ENE,67,2.2,2.2,75,-99.99,,,0.00,wxRedirect v1.1,2013-03-29 13:04:00,
2013-03-29 08:09:00,50.4,42.7,30.13,East,90,0.0,2.2,75,-99.99,,,0.00,wxRedirect v1.1,2013-03-29 13:09:00,
2013-03-29 08:14:00,50.7,43.4,30.13,East,90,4.0,4.0,76,-99.99,,,0.00,wxRedirect v1.1,2013-03-29 13:14:00,
2013-03-29 08:20:00,50.9,43.6,30.13,East,90,3.4,4.0,76,-99.99,,,0.00,wxRedirect v1.1,2013-03-29 13:20:00,
2013-03-29 08:25:00,51.6,44.3,30.13,ENE,67,0.0,3.6,76,-99.99,,,0.00,wxRedirect v1.1,2013-03-29 13:25:00,
2013-03-29 08:30:00,52.0,44.7,30.13,East,90,2.9,3.4,76,-99.99,,,0.00,wxRedirect v1.1,2013-03-29 13:30:00,
2013-03-29 08:36:00,52.9,45.5,30.13,ESE,112,3.4,4.3,76,-99.99,,,0.00,wxRedirect v1.1,2013-03-29 13:36:00,
2013-03-29 08:41:00,53.4,46.0,30.13,East,90,2.7,4.3,76,-99.99,,,0.00,wxRedirect v1.1,2013-03-29 13:41:00,
2013-03-29 08:46:00,54.3,46.5,30.13,ESE,112,2.7,4.5,75,-99.99,,,0.00,wxRedirect v1.1,2013-03-29 13:46:00,
2013-03-29 08:52:00,55.0,46.9,30.13,East,90,5.1,5.1,74,-99.99,,,0.00,wxRedirect v1.1,2013-03-29 13:52:00,
2013-03-29 08:57:00,55.9,47.4,30.13,ESE,112,5.4,5.4,73,-99.99,,,0.00,wxRedirect v1.1,2013-03-29 13:57:00,
2013-03-29 09:02:00,56.7,48.1,30.13,ESE,112,2.7,5.4,73,-99.99,,,0.00,wxRedirect v1.1,2013-03-29 14:02:00,
2013-03-29 09:07:00,57.6,48.2,30.13,ESE,112,4.5,5.4,71,-99.99,,,0.00,wxRedirect v1.1,2013-03-29 14:07:00,
2013-03-29 09:13:00,58.1,48.7,30.13,East,90,4.5,4.5,71,-99.99,,,0.00,wxRedirect v1.1,2013-03-29 14:13:00,
2013-03-29 09:18:00,58.8,49.1,30.13,East,90,2.9,4.5,70,-99.99,,,0.00,wxRedirect v1.1,2013-03-29 14:18:00,
2013-03-29 09:23:00,59.5,49.4,30.13,East,90,3.6,3.6,69,-99.99,,,0.00,wxRedirect v1.1,2013-03-29 14:23:00,
2013-03-29 09:29:00,60.6,50.1,30.13,East,90,6.0,6.0,68,-99.99,,,0.00,wxRedirect v1.1,2013-03-29 14:29:00,
2013-03-29 09:34:00,61.3,50.3,30.13,East,90,3.6,6.0,67,-99.99,,,0.00,wxRedirect v1.1,2013-03-29 14:34:00,
2013-03-29 09:39:00,62.2,50.7,30.13,ESE,112,0.0,6.0,66,-99.99,,,0.00,wxRedirect v1.1,2013-03-29 14:39:00,
2013-03-29 09:45:00,62.8,50.8,30.14,East,90,0.0,4.9,65,-99.99,,,0.00,wxRedirect v1.1,2013-03-29 14:45:00,
2013-03-29 09:50:00,63.7,51.2,30.13,East,90,3.4,4.5,64,-99.99,,,0.00,wxRedirect v1.1,2013-03-29 14:50:00,
2013-03-29 09:56:00,64.2,51.3,30.13,East,90,3.4,3.4,63,-99.99,,,0.00,wxRedirect v1.1,2013-03-29 14:56:00,
2013-03-29 10:01:00,65.1,51.7,30.14,ENE,67,0.0,3.4,62,-99.99,,,0.00,wxRedirect v1.1,2013-03-29 15:01:00,
2013-03-29 10:07:00,65.8,52.0,30.14,East,90,1.1,2.7,61,-99.99,,,0.00,wxRedirect v1.1,2013-03-29 15:07:00,
2013-03-29 10:12:00,66.4,52.1,30.13,East,90,4.9,4.9,60,-99.99,,,0.00,wxRedirect v1.1,2013-03-29 15:12:00,
2013-03-29 10:17:00,66.7,52.5,30.13,ESE,112,3.4,4.9,60,-99.99,,,0.00,wxRedirect v1.1,2013-03-29 15:17:00,
2013-03-29 10:23:00,67.3,52.5,30.13,East,90,2.5,4.9,59,-99.99,,,0.00,wxRedirect v1.1,2013-03-29 15:23:00,
2013-03-29 10:28:00,67.5,52.6,30.13,ESE,112,6.7,7.6,59,-99.99,,,0.00,wxRedirect v1.1,2013-03-29 15:28:00,
2013-03-29 10:33:00,67.3,52.0,30.13,ESE,112,8.3,8.3,58,-99.99,,,0.00,wxRedirect v1.1,2013-03-29 15:33:00,
2013-03-29 10:39:00,67.5,52.1,30.13,ESE,112,7.6,8.3,58,-99.99,,,0.00,wxRedirect v1.1,2013-03-29 15:39:00,
2013-03-29 10:44:00,67.8,52.5,30.13,ESE,112,4.7,8.3,58,-99.99,,,0.00,wxRedirect v1.1,2013-03-29 15:44:00,
2013-03-29 10:49:00,68.4,53.0,30.13,ENE,67,3.4,7.6,58,-99.99,,,0.00,wxRedirect v1.1,2013-03-29 15:49:00,
2013-03-29 10:55:00,68.5,53.2,30.13,East,90,5.8,5.8,58,-99.99,,,0.00,wxRedirect v1.1,2013-03-29 15:55:00,
2013-03-29 11:00:00,68.9,53.5,30.13,ESE,112,0.0,6.0,58,-99.99,,,0.00,wxRedirect v1.1,2013-03-29 16:00:00,
2013-03-29 11:05:00,69.4,54.0,30.13,ESE,112,4.9,6.0,58,-99.99,,,0.00,wxRedirect v1.1,2013-03-29 16:05:00,
2013-03-29 11:11:00,69.6,54.2,30.12,East,90,4.9,5.8,58,-99.99,,,0.00,wxRedirect v1.1,2013-03-29 16:11:00,
2013-03-29 11:17:00,70.3,54.9,30.12,East,90,0.0,7.8,58,-99.99,,,0.00,wxRedirect v1.1,2013-03-29 16:17:00,
2013-03-29 11:22:00,70.9,54.9,30.12,ENE,67,3.1,9.2,57,-99.99,,,0.00,wxRedirect v1.1,2013-03-29 16:22:00,
2013-03-29 11:27:00,71.2,54.7,30.12,ESE,112,3.4,9.2,56,-99.99,,,0.00,wxRedirect v1.1,2013-03-29 16:27:00,
2013-03-29 11:33:00,71.4,54.8,30.12,East,90,4.5,6.7,56,-99.99,,,0.00,wxRedirect v1.1,2013-03-29 16:33:00,
2013-03-29 11:38:00,71.4,54.8,30.11,NE,45,0.0,6.7,56,-99.99,,,0.00,wxRedirect v1.1,2013-03-29 16:38:00,
2013-03-29 11:44:00,71.8,55.2,30.11,East,90,0.7,6.3,56,-99.99,,,0.00,wxRedirect v1.1,2013-03-29 16:44:00,
2013-03-29 11:49:00,72.0,54.8,30.11,East,90,5.1,5.1,55,-99.99,,,0.00,wxRedirect v1.1,2013-03-29 16:49:00,
2013-03-29 11:54:00,72.0,54.8,30.12,East,90,6.3,6.3,55,-99.99,,,0.00,wxRedirect v1.1,2013-03-29 16:54:00,
2013-03-29 11:59:00,72.1,55.0,30.11,East,90,6.7,6.7,55,-99.99,,,0.00,wxRedirect v1.1,2013-03-29 16:59:00,
2013-03-29 12:05:00,72.1,55.0,30.11,East,90,4.0,7.2,55,-99.99,,,0.00,wxRedirect v1.1,2013-03-29 17:05:00,
2013-03-29 12:10:00,72.3,55.1,30.11,ESE,112,0.0,9.4,55,-99.99,,,0.00,wxRedirect v1.1,2013-03-29 17:10:00,
2013-03-29 12:15:00,72.7,55.0,30.11,ENE,67,11.2,11.2,54,-99.99,,,0.00,wxRedirect v1.1,2013-03-29 17:15:00,
2013-03-29 12:21:00,72.9,55.1,30.11,NE,45,6.7,11.2,54,-99.99,,,0.00,wxRedirect v1.1,2013-03-29 17:21:00,
2013-03-29 12:26:00,73.0,55.3,30.11,ENE,67,7.2,7.2,54,-99.99,,,0.00,wxRedirect v1.1,2013-03-29 17:26:00,
2013-03-29 12:31:00,72.9,54.6,30.10,East,90,10.3,11.9,53,-99.99,,,0.00,wxRedirect v1.1,2013-03-29 17:31:00,
2013-03-29 12:37:00,72.7,55.0,30.10,ENE,67,4.9,11.9,54,-99.99,,,0.00,wxRedirect v1.1,2013-03-29 17:37:00,
2013-03-29 12:42:00,72.9,55.1,30.10,ENE,67,3.1,7.8,54,-99.99,,,0.00,wxRedirect v1.1,2013-03-29 17:42:00,
2013-03-29 12:47:00,72.7,55.0,30.10,NE,45,5.6,7.8,54,-99.99,,,0.00,wxRedirect v1.1,2013-03-29 17:47:00,
2013-03-29 12:53:00,72.9,55.1,30.10,ENE,67,6.7,9.6,54,-99.99,,,0.00,wxRedirect v1.1,2013-03-29 17:53:00,
2013-03-29 12:58:00,73.0,54.8,30.09,ENE,67,7.6,9.6,53,-99.99,,,0.00,wxRedirect v1.1,2013-03-29 17:58:00,
2013-03-29 13:03:00,73.0,54.8,30.09,ENE,67,2.5,13.4,53,-99.99,,,0.00,wxRedirect v1.1,2013-03-29 18:03:00,
2013-03-29 13:09:00,73.0,55.3,30.09,East,90,11.4,13.4,54,-99.99,,,0.00,wxRedirect v1.1,2013-03-29 18:09:00,
2013-03-29 13:14:00,73.0,54.8,30.09,ESE,112,6.7,11.4,53,-99.99,,,0.00,wxRedirect v1.1,2013-03-29 18:14:00,
2013-03-29 13:19:00,73.0,54.8,30.09,ESE,112,8.3,8.3,53,-99.99,,,0.00,wxRedirect v1.1,2013-03-29 18:19:00,
2013-03-29 13:24:00,72.7,54.5,30.09,ENE,67,0.0,8.3,53,-99.99,,,0.00,wxRedirect v1.1,2013-03-29 18:24:00,
2013-03-29 13:30:00,72.5,54.3,30.09,ENE,67,3.4,10.3,53,-99.99,,,0.00,wxRedirect v1.1,2013-03-29 18:30:00,
2013-03-29 13:35:00,72.5,54.3,30.09,ESE,112,7.2,13.4,53,-99.99,,,0.00,wxRedirect v1.1,2013-03-29 18:35:00,
2013-03-29 13:40:00,72.5,54.3,30.08,ENE,67,7.2,13.4,53,-99.99,,,0.00,wxRedirect v1.1,2013-03-29 18:40:00,
2013-03-29 13:46:00,72.3,54.1,30.08,ESE,112,8.7,8.7,53,-99.99,,,0.00,wxRedirect v1.1,2013-03-29 18:46:00,
2013-03-29 13:51:00,72.3,54.1,30.08,ENE,67,7.6,8.7,53,-99.99,,,0.00,wxRedirect v1.1,2013-03-29 18:51:00,
2013-03-29 13:57:00,72.3,54.1,30.09,East,90,4.0,8.7,53,-99.99,,,0.00,wxRedirect v1.1,2013-03-29 18:57:00,
2013-03-29 14:02:00,72.1,54.0,30.08,East,90,4.0,6.9,53,-99.99,,,0.00,wxRedirect v1.1,2013-03-29 19:02:00,
2013-03-29 14:07:00,72.1,54.0,30.08,ENE,67,1.6,4.0,53,-99.99,,,0.00,wxRedirect v1.1,2013-03-29 19:07:00,
2013-03-29 14:13:00,72.1,54.0,30.08,ENE,67,3.8,7.8,53,-99.99,,,0.00,wxRedirect v1.1,2013-03-29 19:13:00,
2013-03-29 14:18:00,72.5,53.8,30.08,ESE,112,10.3,10.3,52,-99.99,,,0.00,wxRedirect v1.1,2013-03-29 19:18:00,
2013-03-29 14:24:00,72.3,53.6,30.07,ESE,112,11.4,11.4,52,-99.99,,,0.00,wxRedirect v1.1,2013-03-29 19:24:00,
2013-03-29 14:29:00,72.7,54.0,30.07,ESE,112,4.0,11.4,52,-99.99,,,0.00,wxRedirect v1.1,2013-03-29 19:29:00,
2013-03-29 14:34:00,72.9,54.1,30.07,ESE,112,4.0,9.6,52,-99.99,,,0.00,wxRedirect v1.1,2013-03-29 19:34:00,
2013-03-29 14:39:00,73.2,53.9,30.07,SSE,157,12.1,12.1,51,-99.99,,,0.00,wxRedirect v1.1,2013-03-29 19:39:00,
2013-03-29 14:45:00,73.2,53.4,30.07,SSE,157,12.1,12.1,50,-99.99,,,0.00,wxRedirect v1.1,2013-03-29 19:45:00,
2013-03-29 14:50:00,73.2,53.9,30.07,ESE,112,4.9,12.1,51,-99.99,,,0.00,wxRedirect v1.1,2013-03-29 19:50:00,
2013-03-29 14:55:00,73.2,53.9,30.06,SE,135,5.4,5.4,51,-99.99,,,0.00,wxRedirect v1.1,2013-03-29 19:55:00,
2013-03-29 15:01:00,73.2,53.9,30.06,East,90,2.2,6.3,51,-99.99,,,0.00,wxRedirect v1.1,2013-03-29 20:01:00,
2013-03-29 15:06:00,73.0,53.8,30.06,SE,135,6.7,6.7,51,-99.99,,,0.00,wxRedirect v1.1,2013-03-29 20:06:00,
2013-03-29 15:11:00,72.9,53.1,30.06,ESE,112,11.9,11.9,50,-99.99,,,0.00,wxRedirect v1.1,2013-03-29 20:11:00,
2013-03-29 15:17:00,72.5,52.8,30.06,ESE,112,7.8,11.9,50,-99.99,,,0.00,wxRedirect v1.1,2013-03-29 20:17:00,
2013-03-29 15:22:00,72.5,53.3,30.06,SSE,157,8.9,11.9,51,-99.99,,,0.00,wxRedirect v1.1,2013-03-29 20:22:00,
2013-03-29 15:27:00,72.7,53.0,30.06,SSE,157,4.9,12.3,50,-99.99,,,0.00,wxRedirect v1.1,2013-03-29 20:27:00,
2013-03-29 15:32:00,72.7,53.0,30.06,ESE,112,8.7,12.3,50,-99.99,,,0.00,wxRedirect v1.1,2013-03-29 20:32:00,
2013-03-29 15:37:00,72.7,52.4,30.05,SSE,157,9.2,10.7,49,-99.99,,,0.00,wxRedirect v1.1,2013-03-29 20:37:00,
2013-03-29 15:43:00,72.7,52.4,30.05,SSE,157,5.6,10.7,49,-99.99,,,0.00,wxRedirect v1.1,2013-03-29 20:43:00,
2013-03-29 15:48:00,72.7,52.4,30.05,SE,135,9.8,9.8,49,-99.99,,,0.00,wxRedirect v1.1,2013-03-29 20:48:00,
2013-03-29 15:53:00,72.5,52.2,30.05,SE,135,6.0,9.8,49,-99.99,,,0.00,wxRedirect v1.1,2013-03-29 20:53:00,
2013-03-29 15:59:00,72.3,52.0,30.05,SSE,157,11.9,11.9,49,-99.99,,,0.00,wxRedirect v1.1,2013-03-29 20:59:00,
2013-03-29 16:04:00,72.3,52.0,30.05,SSE,157,7.8,11.9,49,-99.99,,,0.00,wxRedirect v1.1,2013-03-29 21:04:00,
2013-03-29 16:09:00,72.3,52.0,30.04,SSE,157,9.4,11.2,49,-99.99,,,0.00,wxRedirect v1.1,2013-03-29 21:09:00,
2013-03-29 16:15:00,72.5,52.2,30.04,East,90,6.0,15.4,49,-99.99,,,0.00,wxRedirect v1.1,2013-03-29 21:15:00,
2013-03-29 16:20:00,72.7,52.4,30.04,South,180,7.2,15.4,49,-99.99,,,0.00,wxRedirect v1.1,2013-03-29 21:20:00,
2013-03-29 16:25:00,72.7,51.8,30.04,SSE,157,9.2,9.2,48,-99.99,,,0.00,wxRedirect v1.1,2013-03-29 21:25:00,
2013-03-29 16:31:00,72.7,51.8,30.04,SSE,157,9.2,11.9,48,-99.99,,,0.00,wxRedirect v1.1,2013-03-29 21:31:00,
2013-03-29 16:37:00,72.5,51.6,30.04,South,180,14.3,14.3,48,-99.99,,,0.00,wxRedirect v1.1,2013-03-29 21:37:00,
2013-03-29 16:42:00,72.5,51.6,30.04,SSE,157,6.3,14.3,48,-99.99,,,0.00,wxRedirect v1.1,2013-03-29 21:42:00,
2013-03-29 16:47:00,72.3,51.4,30.04,South,180,8.7,14.3,48,-99.99,,,0.00,wxRedirect v1.1,2013-03-29 21:47:00,
2013-03-29 16:53:00,72.5,51.6,30.04,SSE,157,9.2,12.3,48,-99.99,,,0.00,wxRedirect v1.1,2013-03-29 21:53:00,
2013-03-29 16:58:00,72.7,51.8,30.04,SE,135,9.8,9.8,48,-99.99,,,0.00,wxRedirect v1.1,2013-03-29 21:58:00,
2013-03-29 17:03:00,72.7,52.4,30.04,SSE,157,12.5,12.5,49,-99.99,,,0.00,wxRedirect v1.1,2013-03-29 22:03:00,
2013-03-29 17:09:00,72.7,51.8,30.04,SE,135,9.4,12.5,48,-99.99,,,0.00,wxRedirect v1.1,2013-03-29 22:09:00,
2013-03-29 17:14:00,72.5,51.6,30.04,SE,135,12.3,12.3,48,-99.99,,,0.00,wxRedirect v1.1,2013-03-29 22:14:00,
2013-03-29 17:19:00,72.3,51.4,30.04,SE,135,8.3,12.3,48,-99.99,,,0.00,wxRedirect v1.1,2013-03-29 22:19:00,
2013-03-29 17:25:00,72.1,51.3,30.04,SSE,157,10.5,11.4,48,-99.99,,,0.00,wxRedirect v1.1,2013-03-29 22:25:00,
2013-03-29 17:30:00,72.0,51.7,30.04,SSE,157,10.3,12.5,49,-99.99,,,0.00,wxRedirect v1.1,2013-03-29 22:30:00,
2013-03-29 17:35:00,72.0,51.7,30.04,South,180,11.9,12.5,49,-99.99,,,0.00,wxRedirect v1.1,2013-03-29 22:35:00,
2013-03-29 17:41:00,71.8,51.5,30.04,SE,135,9.8,13.4,49,-99.99,,,0.00,wxRedirect v1.1,2013-03-29 22:41:00,
2013-03-29 17:46:00,71.6,51.4,30.04,SE,135,4.5,13.4,49,-99.99,,,0.00,wxRedirect v1.1,2013-03-29 22:46:00,
2013-03-29 17:52:00,71.6,51.4,30.04,SSE,157,8.1,12.8,49,-99.99,,,0.00,wxRedirect v1.1,2013-03-29 22:52:00,
2013-03-29 17:57:00,71.4,51.2,30.04,ESE,112,9.2,12.8,49,-99.99,,,0.00,wxRedirect v1.1,2013-03-29 22:57:00,
2013-03-29 18:03:00,71.4,51.2,30.04,ESE,112,12.3,12.3,49,-99.99,,,0.00,wxRedirect v1.1,2013-03-29 23:03:00,
2013-03-29 18:08:00,71.2,51.1,30.04,East,90,5.6,12.3,49,-99.99,,,0.00,wxRedirect v1.1,2013-03-29 23:08:00,
2013-03-29 18:13:00,70.9,51.3,30.04,ENE,67,2.0,12.3,50,-99.99,,,0.00,wxRedirect v1.1,2013-03-29 23:13:00,
2013-03-29 18:19:00,70.7,51.2,30.04,ESE,112,5.4,9.8,50,-99.99,,,0.00,wxRedirect v1.1,2013-03-29 23:19:00,
2013-03-29 18:24:00,70.7,51.2,30.04,SE,135,5.6,8.3,50,-99.99,,,0.00,wxRedirect v1.1,2013-03-29 23:24:00,
2013-03-29 18:29:00,70.5,51.0,30.04,SE,135,7.8,8.3,50,-99.99,,,0.00,wxRedirect v1.1,2013-03-29 23:29:00,
2013-03-29 18:35:00,70.3,50.8,30.04,South,180,10.5,10.5,50,-99.99,,,0.00,wxRedirect v1.1,2013-03-29 23:35:00,
2013-03-29 18:40:00,70.3,50.8,30.04,ESE,112,6.0,10.5,50,-99.99,,,0.00,wxRedirect v1.1,2013-03-29 23:40:00,
2013-03-29 18:45:00,70.2,51.2,30.04,SE,135,10.3,10.5,51,-99.99,,,0.00,wxRedirect v1.1,2013-03-29 23:45:00,
2013-03-29 18:50:00,70.2,51.2,30.03,SE,135,7.8,10.3,51,-99.99,,,0.00,wxRedirect v1.1,2013-03-29 23:50:00,
2013-03-29 18:56:00,70.0,51.0,30.04,SE,135,4.9,10.3,51,-99.99,,,0.00,wxRedirect v1.1,2013-03-29 23:56:00,
2013-03-29 19:01:00,70.0,51.5,30.04,ESE,112,6.3,8.9,52,-99.99,,,0.00,wxRedirect v1.1,2013-03-30 00:01:00,
2013-03-29 19:06:00,69.8,51.4,30.04,East,90,6.9,8.9,52,-99.99,,,0.00,wxRedirect v1.1,2013-03-30 00:06:00,
2013-03-29 19:12:00,69.6,51.2,30.04,SE,135,6.7,7.2,52,-99.99,,,0.00,wxRedirect v1.1,2013-03-30 00:12:00,
2013-03-29 19:17:00,69.6,51.2,30.04,SE,135,6.0,6.7,52,-99.99,,,0.00,wxRedirect v1.1,2013-03-30 00:17:00,
2013-03-29 19:22:00,69.4,51.5,30.04,SE,135,3.8,6.0,53,-99.99,,,0.00,wxRedirect v1.1,2013-03-30 00:22:00,
2013-03-29 19:28:00,69.3,51.4,30.04,SE,135,5.8,5.8,53,-99.99,,,0.00,wxRedirect v1.1,2013-03-30 00:28:00,
2013-03-29 19:33:00,69.1,51.2,30.04,SE,135,6.3,9.4,53,-99.99,,,0.00,wxRedirect v1.1,2013-03-30 00:33:00,
2013-03-29 19:38:00,68.9,51.0,30.04,SE,135,6.0,9.4,53,-99.99,,,0.00,wxRedirect v1.1,2013-03-30 00:38:00,
2013-03-29 19:44:00,68.5,51.2,30.04,SE,135,5.4,12.1,54,-99.99,,,0.00,wxRedirect v1.1,2013-03-30 00:44:00,
2013-03-29 19:49:00,68.5,51.2,30.04,SSE,157,5.8,12.1,54,-99.99,,,0.00,wxRedirect v1.1,2013-03-30 00:49:00,
2013-03-29 19:54:00,68.2,50.8,30.04,SE,135,3.4,5.8,54,-99.99,,,0.00,wxRedirect v1.1,2013-03-30 00:54:00,
2013-03-29 20:00:00,68.0,51.2,30.04,ESE,112,6.5,7.8,55,-99.99,,,0.00,wxRedirect v1.1,2013-03-30 01:00:00,
2013-03-29 20:05:00,67.8,51.0,30.04,ESE,112,3.8,7.8,55,-99.99,,,0.00,wxRedirect v1.1,2013-03-30 01:05:00,
2013-03-29 20:10:00,67.6,51.3,30.04,SE,135,4.5,7.6,56,-99.99,,,0.00,wxRedirect v1.1,2013-03-30 01:10:00,
2013-03-29 20:16:00,67.1,51.3,30.04,SSE,157,4.3,7.6,57,-99.99,,,0.00,wxRedirect v1.1,2013-03-30 01:16:00,
2013-03-29 20:21:00,66.9,51.2,30.04,ESE,112,3.6,5.8,57,-99.99,,,0.00,wxRedirect v1.1,2013-03-30 01:21:00,
2013-03-29 20:26:00,66.6,51.3,30.04,ESE,112,6.5,8.7,58,-99.99,,,0.00,wxRedirect v1.1,2013-03-30 01:26:00,
2013-03-29 20:32:00,66.4,51.2,30.04,ESE,112,12.3,12.3,58,-99.99,,,0.00,wxRedirect v1.1,2013-03-30 01:32:00,
2013-03-29 20:37:00,66.0,51.3,30.04,ESE,112,8.1,12.8,59,-99.99,,,0.00,wxRedirect v1.1,2013-03-30 01:37:00,
2013-03-29 20:42:00,65.8,51.1,30.04,SE,135,4.7,12.8,59,-99.99,,,0.00,wxRedirect v1.1,2013-03-30 01:42:00,
2013-03-29 20:48:00,65.5,51.3,30.04,SE,135,8.7,8.7,60,-99.99,,,0.00,wxRedirect v1.1,2013-03-30 01:48:00,
2013-03-29 20:53:00,65.5,51.3,30.04,ESE,112,5.4,8.7,60,-99.99,,,0.00,wxRedirect v1.1,2013-03-30 01:53:00,
2013-03-29 20:58:00,64.9,50.7,30.04,ESE,112,6.7,11.2,60,-99.99,,,0.00,wxRedirect v1.1,2013-03-30 01:58:00,
2013-03-29 21:04:00,64.8,51.0,30.04,SE,135,5.8,11.2,61,-99.99,,,0.00,wxRedirect v1.1,2013-03-30 02:04:00,
2013-03-29 21:09:00,64.6,50.8,30.04,ESE,112,6.7,7.8,61,-99.99,,,0.00,wxRedirect v1.1,2013-03-30 02:09:00,
2013-03-29 21:14:00,64.2,50.9,30.04,ESE,112,7.8,8.1,62,-99.99,,,0.00,wxRedirect v1.1,2013-03-30 02:14:00,
2013-03-29 21:20:00,64.0,50.7,30.04,SE,135,11.0,11.0,62,-99.99,,,0.00,wxRedirect v1.1,2013-03-30 02:20:00,
2013-03-29 21:25:00,63.7,50.8,30.05,SE,135,7.6,11.0,63,-99.99,,,0.00,wxRedirect v1.1,2013-03-30 02:25:00,
2013-03-29 21:30:00,63.7,50.8,30.05,SE,135,8.9,11.0,63,-99.99,,,0.00,wxRedirect v1.1,2013-03-30 02:30:00,
2013-03-29 21:36:00,63.5,50.6,30.05,SE,135,6.0,10.1,63,-99.99,,,0.00,wxRedirect v1.1,2013-03-30 02:36:00,
2013-03-29 21:41:00,63.3,50.5,30.05,SSE,157,5.6,10.1,63,-99.99,,,0.00,wxRedirect v1.1,2013-03-30 02:41:00,
2013-03-29 21:47:00,63.1,50.7,30.05,SE,135,7.8,9.4,64,-99.99,,,0.00,wxRedirect v1.1,2013-03-30 02:47:00,
2013-03-29 21:52:00,63.0,50.5,30.05,SE,135,5.8,8.5,64,-99.99,,,0.00,wxRedirect v1.1,2013-03-30 02:52:00,
2013-03-29 21:58:00,62.8,50.4,30.06,ESE,112,5.8,8.5,64,-99.99,,,0.00,wxRedirect v1.1,2013-03-30 02:58:00,
2013-03-29 22:03:00,62.6,50.2,30.06,ESE,112,8.5,8.5,64,-99.99,,,0.00,wxRedirect v1.1,2013-03-30 03:03:00,
2013-03-29 22:08:00,62.4,50.1,30.06,SSE,157,7.6,8.5,64,-99.99,,,0.00,wxRedirect v1.1,2013-03-30 03:08:00,
2013-03-29 22:14:00,62.4,50.5,30.06,SE,135,6.5,7.6,65,-99.99,,,0.00,wxRedirect v1.1,2013-03-30 03:14:00,
2013-03-29 22:19:00,62.2,50.3,30.06,SE,135,6.3,6.5,65,-99.99,,,0.00,wxRedirect v1.1,2013-03-30 03:19:00,
2013-03-29 22:24:00,62.1,50.1,30.06,SE,135,4.7,6.5,65,-99.99,,,0.00,wxRedirect v1.1,2013-03-30 03:24:00,
2013-03-29 22:30:00,61.9,50.4,30.06,SE,135,4.3,6.5,66,-99.99,,,0.00,wxRedirect v1.1,2013-03-30 03:30:00,
2013-03-29 22:35:00,61.9,50.4,30.06,SE,135,6.0,7.8,66,-99.99,,,0.00,wxRedirect v1.1,2013-03-30 03:35:00,
2013-03-29 22:40:00,61.7,50.2,30.05,SE,135,9.8,13.9,66,-99.99,,,0.00,wxRedirect v1.1,2013-03-30 03:40:00,
2013-03-29 22:46:00,61.5,50.5,30.05,SE,135,9.2,13.9,67,-99.99,,,0.00,wxRedirect v1.1,2013-03-30 03:46:00,
2013-03-29 22:51:00,61.3,50.3,30.05,SE,135,3.8,10.5,67,-99.99,,,0.00,wxRedirect v1.1,2013-03-30 03:51:00,
2013-03-29 22:56:00,61.3,50.3,30.05,SE,135,5.1,8.7,67,-99.99,,,0.00,wxRedirect v1.1,2013-03-30 03:56:00,
2013-03-29 23:00:00,61.2,50.2,30.05,SE,135,4.9,8.7,67,-99.99,,,0.00,wxRedirect v1.1,2013-03-30 04:00:00,
2013-03-29 23:01:00,61.2,50.2,30.05,SE,135,4.9,8.7,67,-99.99,,,0.00,wxRedirect v1.1,2013-03-30 04:01:00,
2013-03-29 23:03:00,61.0,50.4,30.05,SE,135,5.6,7.6,68,-99.99,,,0.00,wxRedirect v1.1,2013-03-30 04:03:00,
2013-03-29 23:04:00,61.0,50.4,30.05,SE,135,5.6,7.6,68,-99.99,,,0.00,wxRedirect v1.1,2013-03-30 04:04:00,
2013-03-29 23:10:00,61.0,50.4,30.04,ENE,67,8.7,8.7,68,-99.99,,,0.00,wxRedirect v1.1,2013-03-30 04:10:00,
2013-03-29 23:15:00,60.6,50.5,30.04,SE,135,4.3,8.7,69,-99.99,,,0.00,wxRedirect v1.1,2013-03-30 04:15:00,
2013-03-29 23:21:00,60.6,50.5,30.04,SSE,157,7.2,8.3,69,-99.99,,,0.00,wxRedirect v1.1,2013-03-30 04:21:00,
2013-03-29 23:27:00,60.4,50.3,30.04,SE,135,9.6,9.6,69,-99.99,,,0.00,wxRedirect v1.1,2013-03-30 04:27:00,
2013-03-29 23:32:00,60.4,50.7,30.03,SE,135,7.8,9.6,70,-99.99,,,0.00,wxRedirect v1.1,2013-03-30 04:32:00,
2013-03-29 23:37:00,60.1,50.4,30.03,SE,135,6.5,7.8,70,-99.99,,,0.00,wxRedirect v1.1,2013-03-30 04:37:00,
2013-03-29 23:43:00,60.1,50.4,30.03,SSE,157,8.3,8.3,70,-99.99,,,0.00,wxRedirect v1.1,2013-03-30 04:43:00,
2013-03-29 23:48:00,59.9,50.5,30.03,SE,135,4.0,8.3,71,-99.99,,,0.00,wxRedirect v1.1,2013-03-30 04:48:00,
2013-03-29 23:53:00,59.7,50.4,30.02,SE,135,4.9,5.8,71,-99.99,,,0.00,wxRedirect v1.1,2013-03-30 04:53:00,
2013-03-29 23:58:00,59.5,50.5,30.02,SE,135,6.7,6.7,72,-99.99,,,0.00,wxRedirect v1.1,2013-03-30 04:58:00,